EHI
0 0 0 0 0 0 0 0 0 0 0 0 0 0 0 0 0 0 0 0 2 9 20 26 28 27 22 18 19 22 23 24 23 21 19 16 12 6 3 2 1 0 1 3 3 2 1 1 1
0 0 0 0 0 0 0 0 0 0 0 0 0 0 0 0 0 0 0 0 2 11 20 25 25 24 21 19 22 24 25 24 22 20 17 14 11 7 4 2 1 1 1 3 4 4 3 2 2
0 0 0 0 0 0 0 0 0 0 0 0 0 0 0 0 0 0 0 1 4 12 20 24 24 23 22 21 22 25 24 22 19 17 14 12 11 9 7 5 4 2 2 3 4 5 5 5 4
0 0 0 0 0 0 0 0 0 0 0 0 0 0 0 0 0 0 0 2 6 13 19 23 25 25 23 21 20 22 21 18 15 14 12 11 10 10 9 8 7 5 4 3 3 4 6 6 4
0 0 0 0 0 0 0 0 0 0 0 0 0 0 0 0 0 0 0 2 7 14 18 22 24 23 22 20 18 18 18 16 15 14 13 11 10 8 8 8 7 7 6 4 3 3 5 5 4
0 0 0 0 0 0 0 0 0 0 0 0 0 0 0 0 0 0 0 2 7 12 16 19 20 19 20 19 16 14 15 16 16 15 14 11 9 6 6 6 6 6 5 3 1 1 3 3 3
0 0 0 0 0 0 0 0 0 0 0 0 0 0 0 0 0 0 1 4 8 11 13 16 17 17 17 16 13 12 13 14 15 14 11 8 6 5 4 3 3 3 3 1 0 0 1 1 2
0 0 0 0 0 0 0 0 0 0 0 0 0 0 0 0 1 1 2 6 9 10 11 12 14 14 12 11 10 10 11 11 11 9 6 3 3 3 2 1 1 1 1 1 0 0 0 0 1
0 0 0 0 0 0 0 0 0 0 0 0 0 0 0 1 2 2 3 6 8 8 8 8 10 10 8 7 7 8 8 8 6 4 2 1 1 1 0 0 0 0 0 0 1 1 0 0 1
0 0 0 0 0 0 0 0 0 0 0 0 0 0 0 1 2 2 2 4 5 5 5 5 6 6 5 5 6 6 5 4 3 1 0 0 0 0 0 0 0 0 0 0 0 1 1 1 2
0 0 0 0 0 0 0 0 0 0 0 0 0 0 0 0 1 1 0 1 2 3 3 4 4 4 3 3 5 5 4 2 1 0 0 0 0 0 0 0 0 0 0 0 0 0 0 1 2
0 0 0 0 0 0 0 0 0 0 0 0 0 0 0 0 0 0 0 0 1 2 2 3 3 3 3 3 4 4 3 1 0 0 0 0 0 0 0 0 0 0 0 0 0 0 0 1 2
0 0 0 0 0 0 0 0 0 0 0 0 0 1 0 0 0 0 0 0 0 1 1 1 2 3 3 3 3 2 1 0 0 0 0 0 0 0 0 0 0 0 0 0 0 0 0 0 1
0 0 0 0 0 0 0 0 0 0 0 0 0 0 0 0 0 0 0 0 0 0 0 0 1 2 2 2 2 1 0 0 0 0 0 0 0 0 0 0 0 0 0 0 0 0 0 0 0
0 0 0 0 0 0 0 0 0 0 0 0 0 0 0 0 0 0 0 0 0 0 0 0 0 1 1 1 1 0 0 0 0 0 0 0 0 0 0 0 0 0 0 0 0 0 0 0 0
0 0 0 0 0 0 0 0 0 0 0 0 0 0 0 0 0 0 0 0 0 0 0 0 0 0 0 0 0 0 0 0 0 0 0 0 0 0 0 0 0 0 0 0 0 0 0 0 0
0 0 0 0 0 0 0 0 0 0 0 0 0 0 0 0 0 0 0 0 0 0 0 0 0 0 0 0 0 0 0 0 0 0 0 0 0 0 0 0 0 0 0 0 0 0 0 0 0
0 0 0 0 0 0 0 0 0 0 0 0 0 0 0 0 0 0 0 0 0 0 0 0 0 0 0 0 0 0 0 0 0 0 0 0 0 0 0 0 0 0 0 0 0 0 0 0 0
0 0 0 0 0 0 0 0 0 0 0 0 0 0 0 0 0 0 0 0 0 0 0 0 0 0 0 0 0 0 0 0 0 0 0 0 0 0 0 0 0 0 0 0 0 0 0 0 0
0 0 0 0 0 0 0 0 0 0 0 0 0 0 0 0 0 0 0 0 0 0 0 0 0 0 0 0 0 0 0 0 0 0 0 0 0 0 0 0 0 0 0 0 0 0 0 0 0
0 0 0 0 0 0 0 0 0 0 0 0 0 0 0 0 0 0 0 0 0 0 0 0 0 0 0 0 0 0 0 0 0 0 0 0 0 0 0 0 0 0 0 0 0 0 0 0 0
0 0 0 0 0 0 0 0 0 0 0 0 0 0 0 0 0 0 0 0 0 0 0 0 0 0 0 0 0 0 0 0 0 0 0 0 0 0 0 0 0 0 0 0 0 0 0 0 0
0 0 0 0 0 0 0 0 0 0 0 0 0 0 0 0 0 0 0 0 0 0 0 0 0 0 0 0 0 0 0 0 0 0 0 0 0 0 0 0 0 0 0 0 0 0 0 0 0
0 0 0 0 0 0 0 0 0 0 0 0 0 0 0 0 0 0 0 0 0 0 0 0 0 0 0 0 0 0 0 0 0 0 0 0 0 0 0 0 0 0 0 0 0 0 0 0 0
0 0 0 0 0 0 0 0 0 0 0 0 0 0 0 0 0 0 0 0 0 0 0 0 0 0 0 0 0 0 0 0 0 0 0 0 0 0 0 0 0 0 0 0 0 0 0 0 0
0 0 0 0 0 0 0 0 0 0 0 0 0 0 0 0 0 0 0 0 0 0 0 0 0 0 0 0 0 0 0 0 0 0 0 0 0 0 0 0 0 0 0 0 0 0 0 0 0
0 0 0 0 0 0 0 0 0 0 0 0 0 0 0 0 0 0 0 0 0 0 0 0 0 0 0 0 0 0 0 0 0 0 0 0 0 0 0 0 0 0 0 0 0 0 0 0 0
0 0 0 0 0 0 0 0 0 0 0 0 0 0 0 0 0 0 0 0 0 0 0 0 0 0 0 0 0 0 0 0 0 0 0 0 0 0 0 0 0 0 0 0 0 0 0 0 0
0 0 0 0 0 0 0 0 0 0 0 0 0 0 0 0 0 0 0 0 0 0 0 0 0 0 0 0 0 0 0 0 0 0 0 0 0 0 0 0 0 0 0 0 0 0 0 0 0
0 0 0 0 0 0 0 0 0 0 0 0 0 0 0 0 0 0 0 0 0 0 0 0 0 0 0 0 0 0 0 0 0 0 0 0 0 0 0 0 0 0 0 0 0 0 0 0 0
Wind_Speed
6 3 3 5 7 5 2 4 2 2 2 1 1 2 4 4 4 3 1 1 3 4 4 6 9 9 10 10 10 10 10 9 9 10 9 9 9 9 9 9 9 9 9 9 9 9 9 10 10
2 2 5 6 5 1 5 4 3 3 2 1 1 1 1 1 1 0 1 1 2 3 4 5 8 10 10 10 10 10 10 10 9 9 9 9 9 9 9 9 9 9 8 8 9 9 9 9 9
2 4 5 5 4 5 4 3 4 2 2 0 1 1 1 2 1 2 1 0 2 3 3 5 9 10 10 10 10 9 10 9 9 9 8 8 8 9 8 8 8 8 7 8 8 8 8 8 8
3 5 5 4 3 4 3 2 1 1 2 1 1 1 1 2 2 2 1 2 3 3 3 5 9 10 10 10 10 10 10 10 9 9 8 8 7 8 8 7 7 7 7 7 8 8 8 8 7
4 5 4 0 4 4 3 3 2 1 1 1 1 1 2 2 0 2 2 2 4 3 3 5 8 9 9 10 10 10 10 10 10 9 8 7 7 7 7 7 7 7 7 7 8 8 8 7 7
4 4 4 3 4 3 3 2 1 2 2 1 1 2 3 1 1 2 2 3 3 4 3 4 7 7 9 9 9 10 10 9 9 8 8 7 7 7 7 7 7 6 6 7 7 7 7 7 7
4 4 4 4 3 3 3 1 2 2 2 3 2 2 2 2 1 2 2 3 3 3 3 3 3 5 7 8 8 9 9 8 8 8 7 7 7 7 7 7 6 6 6 6 6 6 6 6 7
4 4 2 3 4 4 2 1 1 2 3 2 2 3 4 3 1 2 3 4 4 3 3 3 3 4 4 4 7 8 8 8 8 8 7 7 7 7 7 6 6 5 5 5 5 6 6 6 6
3 3 3 5 5 4 1 1 2 1 1 1 2 3 3 3 3 4 3 3 3 3 2 2 3 3 3 3 6 7 7 7 7 6 7 6 3 4 4 5 6 6 5 5 5 5 6 6 6
4 3 6 4 4 3 2 2 2 1 2 2 2 2 1 4 4 5 5 5 4 3 2 2 2 3 3 3 4 3 4 4 4 3 4 3 3 3 4 6 7 6 6 5 5 6 5 4 2
3 5 4 3 3 3 2 2 2 2 4 5 5 4 3 4 4 4 5 5 4 4 3 2 2 3 3 3 3 2 2 3 3 3 4 3 3 3 3 2 3 3 4 3 3 3 2 2 2
2 4 4 3 2 2 3 2 2 5 7 4 5 5 4 5 6 6 5 4 3 4 3 2 2 3 3 3 3 3 2 2 2 2 3 3 2 3 2 2 2 2 1 2 2 1 2 2 2
2 3 3 4 3 3 3 4 4 6 6 2 2 3 5 6 5 3 3 3 3 4 4 2 2 3 3 3 2 3 3 2 2 2 2 3 3 2 2 2 2 2 1 2 2 1 2 2 2
3 3 3 4 3 2 3 4 2 7 3 1 2 3 4 4 4 3 3 3 4 4 4 3 3 3 4 3 2 2 2 2 2 2 2 3 3 2 2 2 2 1 1 1 1 1 2 2 2
0 1 4 3 2 2 1 4 5 5 0 1 1 2 2 3 3 5 5 4 4 4 4 4 4 4 4 4 3 2 2 2 2 2 2 2 3 3 3 2 2 1 1 2 2 2 2 2 2
1 1 2 3 1 1 2 6 5 1 1 2 2 2 2 3 3 4 4 3 3 4 4 4 4 5 4 4 3 3 2 3 2 2 2 3 3 3 3 2 1 1 1 1 2 1 2 2 2
2 1 3 4 1 0 2 6 5 1 2 4 4 4 3 3 3 3 3 4 3 4 5 4 4 6 5 4 3 3 3 3 2 2 2 2 3 3 3 2 1 1 2 1 1 1 1 2 2
4 3 3 5 3 1 3 7 7 3 4 5 4 4 3 4 5 3 3 3 3 3 4 4 4 5 5 4 3 3 4 3 2 2 2 2 3 3 3 2 2 2 2 2 2 2 2 2 1
3 3 4 5 2 2 5 9 9 6 4 5 5 4 4 5 3 2 2 3 3 3 4 4 5 5 5 4 3 3 2 2 2 2 2 3 3 3 3 2 2 2 2 1 2 2 2 2 1
3 3 3 4 1 2 5 9 8 6 5 6 5 5 5 4 2 2 3 3 4 5 5 4 5 5 5 4 3 3 3 2 1 1 2 2 3 3 2 2 2 2 2 2 2 2 2 1 2
4 5 4 3 3 2 3 8 5 4 3 3 3 4 4 5 5 3 4 4 4 4 5 5 4 5 5 5 4 4 3 2 2 1 1 1 2 2 3 2 2 2 2 1 1 2 2 1 1
5 4 4 2 1 3 1 5 8 3 4 4 4 4 5 5 4 4 5 4 5 5 4 4 4 5 5 5 5 5 4 3 2 2 1 1 1 2 3 2 2 2 2 2 1 2 2 2 1
4 2 2 1 1 2 1 2 10 2 4 6 5 5 5 5 5 5 5 6 4 4 4 4 5 4 4 5 5 5 3 2 2 2 2 1 1 1 2 2 2 2 2 2 2 2 2 2 2
4 3 4 4 3 3 4 4 9 5 6 5 4 5 5 4 4 4 3 3 3 3 4 4 4 4 4 5 5 5 5 4 3 2 2 1 1 1 1 2 1 2 2 2 2 2 2 1 2
3 5 3 3 2 6 2 4 11 6 5 5 5 5 5 4 4 4 4 4 4 4 4 4 5 4 4 5 5 5 5 5 5 3 3 2 1 1 1 1 1 1 1 2 2 2 2 2 2
4 6 7 5 5 5 1 7 9 4 3 2 2 2 3 4 4 4 5 5 5 5 5 5 5 5 5 5 4 4 4 3 3 3 3 3 2 2 2 2 1 1 1 2 2 2 1 1 2
5 4 4 5 1 2 6 7 9 2 2 1 0 1 2 3 4 4 4 4 5 5 5 5 5 5 5 5 4 4 4 4 3 3 2 2 2 2 2 2 2 2 2 2 2 1 1 1 1
4 7 4 4 4 4 5 5 5 3 3 1 1 2 2 2 2 2 3 3 3 4 3 4 4 5 5 4 4 3 3 3 3 3 3 3 2 2 3 2 3 2 2 2 2 2 1 1 1
4 4 4 4 4 5 4 7 5 5 4 3 3 3 3 2 3 2 2 2 2 2 3 3 3 3 4 4 4 3 3 3 3 3 3 3 3 3 3 3 3 3 2 2 2 2 2 2 2
4 6 7 5 4 4 3 8 3 3 2 1 1 2 1 1 1 2 2 2 2 3 3 3 3 3 3 3 3 3 3 3 3 3 3 3 3 3 3 3 3 3 3 3 3 3 3 3 3
Wind_Direction
353 13 62 57 57 54 235 244 233 256 245 259 230 180 170 177 183 217 288 140 130 148 165 158 151 146 144 137 129 126 121 117 115 113 115 123 126 125 123 121 121 117 114 112 108 102 98 97 97
350 30 54 61 94 160 255 238 228 229 232 319 8 99 135 229 240 228 315 331 124 145 154 158 151 147 145 140 134 130 125 121 118 115 111 115 122 123 121 121 119 118 114 112 110 105 100 97 95
39 50 80 82 132 187 222 226 224 277 287 335 21 18 172 214 200 212 240 186 118 135 147 158 149 146 145 142 136 135 130 125 121 117 112 112 119 121 121 120 117 113 111 111 112 108 103 98 95
66 49 59 87 205 220 221 249 232 315 337 5 122 309 283 261 216 215 145 130 131 132 136 149 143 142 142 142 138 135 132 126 123 120 117 111 117 119 118 115 111 110 112 113 115 110 105 100 97
59 78 79 107 238 248 248 257 220 222 256 268 144 206 267 310 46 134 133 134 139 137 135 137 134 137 140 141 138 133 129 126 122 119 119 113 112 117 113 111 110 110 112 117 118 113 107 101 99
60 74 110 212 242 264 265 243 193 216 241 260 165 176 253 282 124 149 141 134 128 130 123 125 130 128 136 138 137 132 129 124 120 117 115 109 105 113 111 105 102 104 107 114 117 114 110 102 100
108 114 169 195 225 261 255 219 184 199 235 235 188 175 258 260 232 151 129 117 113 115 117 108 118 123 120 123 127 126 122 121 116 109 105 99 93 100 105 104 102 98 98 102 108 110 110 105 100
123 117 157 203 204 238 249 247 225 192 234 241 169 184 232 232 187 123 107 101 101 96 100 107 104 101 103 113 116 117 113 114 110 105 98 90 86 91 91 91 95 92 90 91 99 103 101 96 92
95 94 199 210 199 228 227 261 295 266 204 266 237 226 242 161 141 129 119 108 113 105 94 93 102 105 104 109 106 107 105 102 99 99 97 91 85 82 80 79 81 81 80 86 90 94 94 85 77
105 168 222 214 198 208 230 232 239 288 280 263 277 285 169 153 157 160 161 159 154 140 136 112 110 117 109 107 100 95 95 88 90 98 100 93 85 76 79 76 76 77 72 71 76 75 81 77 70
157 199 232 242 224 215 237 254 216 177 244 234 235 232 181 172 173 178 178 174 171 161 140 137 124 123 111 109 109 96 94 87 85 97 98 93 82 73 65 64 63 59 60 53 60 58 59 77 79
184 235 231 252 241 220 220 236 243 214 238 250 231 194 180 183 189 188 183 184 168 156 138 139 131 116 107 106 110 110 104 100 96 99 102 103 97 83 75 66 57 54 51 57 55 61 49 72 80
216 252 256 258 270 256 242 243 247 257 264 267 208 175 188 195 203 197 178 173 163 160 143 138 130 117 111 105 115 110 108 111 109 97 96 105 109 106 93 79 67 58 59 64 60 62 63 62 70
227 257 285 282 267 250 232 260 245 263 264 200 169 193 201 201 202 184 172 178 179 166 161 141 143 133 123 114 113 116 115 117 108 97 97 106 112 116 108 94 74 59 58 64 73 67 78 70 66
236 311 314 278 247 241 197 276 240 257 196 201 229 226 208 219 205 200 194 191 188 168 160 148 154 141 131 126 120 113 113 113 110 108 101 103 108 116 111 103 83 65 66 69 77 65 64 65 55
53 43 295 285 254 244 157 258 265 246 172 239 248 243 229 239 228 216 196 186 182 162 158 156 161 146 138 128 118 108 102 100 96 98 98 97 102 110 105 101 89 75 80 84 92 82 73 63 52
43 230 253 289 273 210 182 253 273 237 205 236 241 236 233 242 249 229 193 180 175 166 162 163 163 152 142 124 108 102 98 91 88 85 88 96 97 99 100 95 83 79 79 69 80 71 100 83 52
218 223 241 253 275 267 251 264 279 273 225 239 244 237 231 230 236 229 192 178 167 163 162 168 150 140 132 118 104 90 82 75 70 73 78 91 92 91 91 87 73 80 87 70 76 76 65 86 73
188 206 248 258 270 268 255 268 274 270 241 242 241 232 231 237 239 202 182 161 156 156 159 164 145 143 138 129 127 118 115 98 75 65 68 76 82 84 88 90 81 77 88 94 102 93 81 60 57
194 227 259 290 294 253 276 278 271 255 237 229 226 223 221 227 225 192 171 163 171 169 167 160 156 151 149 144 136 126 121 109 102 77 66 69 75 78 92 98 101 93 91 80 81 93 92 48 40
218 208 221 246 325 346 322 303 281 270 245 237 226 217 216 210 212 203 185 188 182 180 176 170 164 155 148 136 117 105 91 82 82 86 77 60 84 86 85 88 107 102 101 108 94 106 109 110 24
236 217 197 204 16 303 28 295 288 273 277 254 236 223 224 220 210 201 190 192 195 196 176 163 160 154 150 145 143 145 144 154 172 160 145 103 91 90 92 83 99 105 99 101 93 89 117 129 136
211 160 155 166 156 311 289 231 283 298 267 259 245 229 225 219 208 202 194 195 195 181 168 163 155 151 151 152 154 146 144 152 140 130 128 116 95 99 105 96 93 109 112 111 100 92 102 125 144
151 81 63 57 77 273 227 190 275 240 229 248 245 229 216 209 205 202 190 174 166 150 148 147 149 154 152 149 150 153 157 158 151 152 151 138 105 94 107 116 112 121 124 125 125 120 118 116 116
117 103 44 360 342 251 208 210 252 253 241 229 239 233 213 199 190 189 182 173 169 160 155 154 152 160 158 154 160 166 167 166 172 176 172 165 159 187 191 158 157 146 145 140 128 118 118 128 131
182 151 160 194 225 270 247 236 254 263 278 263 244 220 192 195 194 194 188 179 178 173 166 165 163 165 163 164 169 166 163 165 175 178 175 183 188 196 181 172 183 182 156 141 129 126 144 137 143
151 188 169 135 148 262 261 277 298 271 311 317 268 164 194 199 198 196 187 180 177 179 181 176 169 168 170 170 166 164 167 170 174 174 174 183 188 186 176 180 196 185 165 161 148 151 170 158 170
156 148 124 142 169 247 278 264 251 257 258 260 220 220 228 204 191 188 188 188 184 183 178 167 170 172 169 167 170 168 171 174 170 167 182 189 194 187 181 190 200 187 177 173 166 172 180 173 207
146 155 154 151 174 180 252 267 231 214 208 206 226 229 218 206 195 185 183 175 168 155 155 159 162 158 165 169 168 161 169 167 166 178 193 194 195 191 190 200 196 192 191 186 180 192 188 197 224
179 176 156 166 214 193 205 266 284 214 217 199 245 263 234 211 187 173 167 150 149 159 162 166 166 164 175 172 165 171 174 164 173 196 203 196 199 201 198 198 192 197 198 194 196 206 208 211 225